Regional Weather Roundup
Issued by NWS

Home | Current Version | Previous Version | Text Only | Print | Product List | Glossary Off
Versions: 1 2 3 4 5 6 7 8 9 10 11 12 13 14 15 16 17 18 19 20 21 22 23 24 25 26 27 28 29 30 31 32 33 34 35 36 37 38 39 40 41 42 43 44 45 46 47 48 49 50

000
ASUS43 KMKX 222111
RWRWI

WISCONSIN REGIONAL WEATHER ROUNDUP
NATIONAL WEATHER SERVICE MILWAUKEE/SULLIVAN WI
400 PM CDT THU JUN 22 2017

NOTE: "FAIR" INDICATES FEW OR NO CLOUDS BELOW 12,000 FEET WITH NO
SIGNIFICANT WEATHER AND/OR OBSTRUCTIONS TO VISIBILITY.

WIZ001-002-006>008-014>016-023>028-222200-
NORTHWEST WISCONSIN

CITY           SKY/WX    TMP DP  RH WIND       PRES   REMARKS
SUPERIOR ARPT  NOT AVBL
ASHLAND        MOSUNNY   73  53  49 SW7       29.69R
HAYWARD        CLOUDY    68  57  68 SW9       29.73R
SIREN          CLOUDY    69  60  73 SW10      29.74R
CUMBERLAND     CLOUDY    63  61  94 W5        29.76R
RICE LAKE      LGT RAIN  65  63  93 W3        29.76F
CHETEK         LGT RAIN  65  65  99 W6        29.76R
LADYSMITH      LGT RAIN  65  63  93 SW3       29.75F
EAU CLAIRE     CLOUDY    70  66  87 SW7       29.73R
MENOMONIE      RAIN      69  69  98 CALM      29.73F
NEW RICHMOND   LGT RAIN  65  64  94 NW5       29.76R
OSCEOLA        DRIZZLE   66  66 100 SW6       29.77F
$$

WIZ003>005-009-010-017-018-222200-
NORTH CENTRAL WISCONSIN

CITY           SKY/WX    TMP DP  RH WIND       PRES   REMARKS
MANITOWISH WTR CLOUDY    66  62  89 SW8       29.72R
ARBOR VITAE    CLOUDY    64  63  94 W7        29.73R
WOODRUFF       CLOUDY    64  63  94 W7        29.73R
RHINELANDER    LGT RAIN  65  65 100 W7        29.75R
EAGLE RIVER    CLOUDY    64  63  97 SW9       29.72R
LAND O LAKES   CLOUDY    66  62  87 W3        29.73R
PHILLIPS       LGT RAIN  63  63  99 SW6       29.75R
TOMAHAWK       NOT AVBL
MEDFORD        CLOUDY    66  63  90 W5        29.75R
MERRILL        LGT RAIN  67  67  97 S5        29.72F
$$

WIZ029-030-035-036-043>047-222200-
CENTRAL WISCONSIN

CITY           SKY/WX    TMP DP  RH WIND       PRES   REMARKS
WAUSAU         CLOUDY    66  65  96 S8        29.71S
MOSINEE        LGT RAIN  64  64 100 CALM      29.73F
MARSHFIELD     CLOUDY    66  63  90 CALM      29.72F
STEVENS POINT  LGT RAIN  66  66 100 S5        29.74F
WAUPACA        RAIN      73  71  95 SW6       29.75R
WAUTOMA        LGT RAIN  71  68  90 SW5       29.76R
WISC RAPIDS    LGT RAIN  68  67  96 S7        29.75F
CAMP DOUGLAS   TSTM      68  68 100 SE9       29.73F
$$

WIZ011>013-019>022-031-037>040-048>050-222200-
NORTHEAST WISCONSIN

CITY           SKY/WX    TMP DP  RH WIND       PRES   REMARKS
ANTIGO         CLOUDY    65  64  96 S9        29.74R
SHAWANO        LGT RAIN  71  68  91 W3        29.72R
OCONTO         CLOUDY    69  66  91 SW7       29.71R
STURGEON BAY   LGT RAIN  68  66  93 SW5         N/A
GREEN BAY      CLOUDY    73  71  93 W6        29.73F
MANITOWOC      CLOUDY    75  67  76 SW7       29.73F
APPLETON       LGT RAIN  72  64  78 SW10      29.74S
CLINTONVILLE   LGT RAIN  70  68  94 SW5       29.74R
OSHKOSH        CLOUDY    74  65  73 W7        29.74S
$$

WIZ032>034-041-042-053>061-222200-
SOUTHWEST WISCONSIN

CITY           SKY/WX    TMP DP  RH WIND       PRES   REMARKS
LA CROSSE      LGT RAIN  71  69  93 CALM      29.73R
SPARTA         TSTM      67  67  99 NW3       29.74S
VIROQUA        CLOUDY    72  68  89 CALM      29.75F
BOSCOBEL       CLOUDY    77  70  79 E3        29.71F
PRAIRIE DU CHI CLOUDY    78  69  72 E5        29.69F HX  80
PLATTEVILLE    CLOUDY    82  71  70 S6        29.73F HX  85
$$

WIZ056-057-062-063-064-067-068-222200-
SOUTH CENTRAL WISCONSIN

CITY           SKY/WX    TMP DP  RH WIND       PRES   REMARKS
REEDSBURG      CLOUDY    71  67  86 CALM      29.74F
BARABOO/DELLS  CLOUDY    71  65  81 NW3       29.75S
LONE ROCK      CLOUDY    77  68  73 E5        29.73F
MINERAL POINT  CLOUDY    81  70  69 SW8       29.75S HX  84
MADISON        CLOUDY    77  67  71 CALM      29.73F
MIDDLETON      CLOUDY    78  67  70 CALM      29.75R
WATERTOWN      CLOUDY    77  69  77 E6        29.72F
MONROE         CLOUDY    81  66  61 S12G17    29.72F HX  83
JANESVILLE     PTSUNNY   84  70  61 SW9       29.72F HX  88
$$

WIZ051-052-058>065-066-070>072-222200-
SOUTHEAST WISCONSIN

CITY           SKY/WX    TMP DP  RH WIND       PRES   REMARKS
MILWAUKEE      CLOUDY    86  66  51 SW9G20    29.74F HX  88
WAUKESHA       MOSUNNY   73  66  78 N7        29.77F
MILWAUKEE/TIMM LGT RAIN  75  66  73 N10       29.76F
RACINE         CLOUDY    87  67  51 S17G23    29.76F HX  90
KENOSHA        PTSUNNY   85  69  58 SW10      29.76S HX  89
FOND DU LAC    CLOUDY    73  67  81 SW3       29.75F
SHEBOYGAN      CLOUDY    75  67  76 NW6       29.74F
WEST BEND      MOSUNNY   75  66  73 S5        29.74F
JUNEAU         CLOUDY    75  65  72 S5        29.74F
$$

LSZ147-162-222200-
LAKE SUPERIOR

STATION/POSITION TIME  TEMP    WIND        PRES    WAVE
                       AIR SEA DIR/SP/G            HT/PER
                 (UTC) (F)     (DEG/KT/KT) (MB)    (FT/S)
W MID LAKE BUOY  2050   47 39  230/ 10/ 10 1004.3R   1
DEVILS ISLAND    2100   64     220/ 11/ 14 1004.0S
SAXON HARBOR     2040   73     240/  4/ 11 1004.7R
$$

LMZ867-665-643>646-222200-
LAKE MICHIGAN

STATION/POSITION TIME  TEMP    WIND        PRES    WAVE
                       AIR SEA DIR/SP/G            HT/PER
                 (UTC) (F)     (DEG/KT/KT) (MB)    (FT/S)
CHAMBERS ISLAND  2040   68     200/  5/ 10 1004.7F
N MID LAKE BUOY  2050   59 55  220/ 12/ 14 1006.1F   2/ 5
NORTHPORT PIER   2040   68     260/  3/  7 1005.4F
KEWAUNEE LAKESHO 2048   74     230/  5/  9 1005.7F
SHEBOYGAN LAKESH 2100   62     180/ 10/ 11 1006.8F
PORT WASHINGTON  2040   68     150/  2/  3 1008.8F
ATWATER BUOY     2039   62 56  350/ 10/ 12 1007.8F
MILWAUKEE LAKESH 2050   68      30/ 11/ 12   N/A
S MID LAKE BUOY  2050   67 61  190/  8/  8 1008.3F   2/ 4
KENOSHA   LAKESH 2100   85     230/ 10/ 15 1007.1
$$

TC  - TEMPERATURE IN CELSIUS
VSB - VISIBILITY IN STATUTE MILES
WCI - WIND CHILL INDEX
HX  - HEAT INDEX




USA.gov is the U.S. government's official web portal to all federal, state and local government web resources and services.